KLM76M EDDM-EHAM

Flight info

Callsign KLM76M
Flight time 1h 15m
Altitude 34000
Route GIVMI6S GIVMI Y101 IBAGA DCT MASEK DCT MAPOX DCT NORKU
Aircraft E75L/M-SDE3GILORVW/S

Departure

Time 2026-05-07 17:09
Airport Munich Airport (EDDM)

Arrival

Time 2026-05-07 18:24
Airport Amsterdam Airport Schiphol (EHAM)
Time Latitude Longitude Altitude Speed Heading
2026-05-07 16:22 48.34864 11.78387 1483 ft 0 kts 83°
2026-05-07 16:51 48.34863 11.78386 1473 ft 2 kts 83°
2026-05-07 16:51 48.34861 11.78349 1483 ft 4 kts 83°
2026-05-07 16:51 48.34863 11.78311 1479 ft 4 kts 114°
2026-05-07 16:51 48.34876 11.78275 1472 ft 4 kts 118°
2026-05-07 16:52 48.34887 11.78239 1477 ft 4 kts 102°
2026-05-07 16:52 48.34886 11.78200 1474 ft 4 kts 83°
2026-05-07 16:52 48.34885 11.78189 1479 ft 2 kts 83°
2026-05-07 16:55 48.34885 11.78193 1480 ft 1 kts 83°
2026-05-07 16:55 48.34891 11.78238 1479 ft 9 kts 65°
2026-05-07 16:56 48.34970 11.78263 1483 ft 17 kts 352°
2026-05-07 16:56 48.35095 11.78242 1480 ft 19 kts 354°
2026-05-07 16:56 48.35192 11.78006 1483 ft 21 kts 263°
2026-05-07 16:57 48.35230 11.77842 1483 ft 16 kts 346°
2026-05-07 16:57 48.35369 11.77814 1483 ft 24 kts 352°
2026-05-07 16:57 48.35530 11.77787 1483 ft 23 kts 353°
2026-05-07 16:57 48.35686 11.77761 1483 ft 23 kts 354°
2026-05-07 16:58 48.35811 11.77702 1479 ft 17 kts 354°
2026-05-07 16:58 48.35910 11.77687 1483 ft 0 kts 354°
2026-05-07 16:58 48.35912 11.77687 1483 ft 0 kts 354°
2026-05-07 16:58 48.35914 11.77686 1483 ft 1 kts 354°
2026-05-07 16:59 48.35928 11.77684 1477 ft 3 kts 354°
2026-05-07 16:59 48.35955 11.77680 1476 ft 6 kts 352°
2026-05-07 16:59 48.36026 11.77665 1483 ft 14 kts 353°
2026-05-07 16:59 48.36079 11.77743 1474 ft 15 kts 79°
2026-05-07 17:00 48.36097 11.77944 1483 ft 21 kts 81°
2026-05-07 17:00 48.36116 11.78152 1483 ft 20 kts 85°
2026-05-07 17:00 48.36130 11.78391 1483 ft 25 kts 83°
2026-05-07 17:00 48.36154 11.78679 1483 ft 30 kts 82°
2026-05-07 17:01 48.36177 11.78994 1483 ft 31 kts 85°
2026-05-07 17:01 48.36201 11.79313 1483 ft 31 kts 83°
2026-05-07 17:01 48.36227 11.79633 1481 ft 31 kts 84°
2026-05-07 17:01 48.36250 11.79947 1483 ft 29 kts 83°
2026-05-07 17:02 48.36274 11.80255 1483 ft 31 kts 83°
2026-05-07 17:02 48.36300 11.80590 1483 ft 34 kts 84°
2026-05-07 17:02 48.36327 11.80954 1483 ft 36 kts 83°
2026-05-07 17:02 48.36357 11.81325 1483 ft 35 kts 83°
2026-05-07 17:03 48.36385 11.81681 1479 ft 33 kts 82°
2026-05-07 17:03 48.36394 11.81942 1473 ft 18 kts 89°
2026-05-07 17:03 48.36453 11.82002 1483 ft 8 kts 352°
2026-05-07 17:03 48.36479 11.81998 1479 ft 0 kts 354°
2026-05-07 17:04 48.36481 11.81997 1477 ft 0 kts 354°
2026-05-07 17:04 48.36482 11.81997 1478 ft 0 kts 355°
2026-05-07 17:04 48.36483 11.81997 1478 ft 0 kts 355°
2026-05-07 17:06 48.36488 11.81996 1480 ft 4 kts 355°
2026-05-07 17:06 48.36560 11.81987 1483 ft 16 kts 355°
2026-05-07 17:07 48.36666 11.81955 1478 ft 13 kts 309°
2026-05-07 17:07 48.36671 11.81910 1483 ft 0 kts 266°
2026-05-07 17:07 48.36671 11.81903 1483 ft 0 kts 266°
2026-05-07 17:08 48.36670 11.81896 1483 ft 4 kts 265°
2026-05-07 17:08 48.36647 11.81585 1483 ft 66 kts 264°
2026-05-07 17:08 48.36567 11.80517 1473 ft 137 kts 264°
2026-05-07 17:09 48.36428 11.78894 1770 ft 174 kts 263°
2026-05-07 17:09 48.36252 11.77114 2776 ft 169 kts 263°
2026-05-07 17:09 48.36047 11.75416 3601 ft 172 kts 259°
2026-05-07 17:09 48.35708 11.73598 4052 ft 187 kts 262°
2026-05-07 17:10 48.35619 11.71617 4508 ft 199 kts 272°
2026-05-07 17:10 48.35679 11.69510 5047 ft 209 kts 275°
2026-05-07 17:10 48.35950 11.67371 5738 ft 218 kts 289°
2026-05-07 17:10 48.36626 11.65255 5937 ft 251 kts 298°
2026-05-07 17:11 48.37386 11.63244 6369 ft 266 kts 300°
2026-05-07 17:11 48.38350 11.60883 6997 ft 270 kts 301°
2026-05-07 17:11 48.39358 11.58516 7160 ft 270 kts 301°
2026-05-07 17:11 48.40378 11.56159 6983 ft 268 kts 302°
2026-05-07 17:12 48.41371 11.53848 7023 ft 259 kts 301°
2026-05-07 17:12 48.42337 11.51541 7081 ft 264 kts 301°
2026-05-07 17:12 48.43304 11.49203 7391 ft 264 kts 301°
2026-05-07 17:12 48.44277 11.46844 8199 ft 265 kts 300°
2026-05-07 17:13 48.45336 11.44547 8966 ft 271 kts 311°
2026-05-07 17:13 48.46943 11.43006 9759 ft 281 kts 338°
2026-05-07 17:13 48.48878 11.42333 10328 ft 294 kts 345°
2026-05-07 17:13 48.50956 11.41684 10637 ft 313 kts 345°
2026-05-07 17:14 48.53081 11.41065 11404 ft 315 kts 346°
2026-05-07 17:14 48.55245 11.40455 12277 ft 318 kts 346°
2026-05-07 17:14 48.57428 11.39842 13130 ft 322 kts 346°
2026-05-07 17:14 48.59650 11.39219 13984 ft 327 kts 346°
2026-05-07 17:15 48.61885 11.38538 14820 ft 329 kts 345°
2026-05-07 17:15 48.64144 11.37859 15665 ft 332 kts 345°
2026-05-07 17:15 48.66438 11.37226 16495 ft 336 kts 346°
2026-05-07 17:15 48.68659 11.36667 17243 ft 340 kts 347°
2026-05-07 17:16 48.70946 11.35806 17998 ft 338 kts 334°
2026-05-07 17:16 48.73096 11.34333 18735 ft 339 kts 330°
2026-05-07 17:16 48.75208 11.32704 19418 ft 342 kts 329°
2026-05-07 17:16 48.77326 11.31028 20047 ft 345 kts 329°
2026-05-07 17:17 48.79475 11.29360 20689 ft 348 kts 330°
2026-05-07 17:17 48.81652 11.27704 21309 ft 351 kts 330°
2026-05-07 17:17 48.83845 11.26051 21912 ft 354 kts 330°
2026-05-07 17:17 48.86053 11.24384 22505 ft 356 kts 330°
2026-05-07 17:18 48.88256 11.22713 23110 ft 359 kts 330°
2026-05-07 17:18 48.90359 11.21113 23676 ft 362 kts 330°
2026-05-07 17:18 48.92616 11.19393 24213 ft 364 kts 330°
2026-05-07 17:18 48.94891 11.17656 24724 ft 367 kts 330°
2026-05-07 17:19 48.97183 11.15904 25239 ft 370 kts 330°
2026-05-07 17:19 48.99434 11.14182 25699 ft 374 kts 331°
2026-05-07 17:19 49.01768 11.12392 26131 ft 377 kts 331°
2026-05-07 17:19 49.04121 11.10586 26597 ft 379 kts 331°
2026-05-07 17:20 49.06482 11.08773 27064 ft 381 kts 331°
2026-05-07 17:20 49.08863 11.06940 27452 ft 385 kts 331°
2026-05-07 17:20 49.11257 11.05094 27860 ft 387 kts 331°
2026-05-07 17:20 49.13671 11.03232 28285 ft 390 kts 331°
2026-05-07 17:21 49.16071 11.01377 28723 ft 392 kts 331°
2026-05-07 17:21 49.18514 10.99486 29113 ft 394 kts 331°
2026-05-07 17:21 49.20968 10.97584 29508 ft 396 kts 331°
2026-05-07 17:21 49.23433 10.95671 29863 ft 400 kts 331°
2026-05-07 17:22 49.25932 10.93728 30100 ft 405 kts 331°
2026-05-07 17:22 49.28451 10.91768 30402 ft 407 kts 331°
2026-05-07 17:22 49.30973 10.89803 30692 ft 409 kts 331°
2026-05-07 17:22 49.33514 10.87821 30954 ft 412 kts 331°
2026-05-07 17:23 49.36071 10.85823 31229 ft 414 kts 331°
2026-05-07 17:23 49.38653 10.83803 31477 ft 416 kts 331°
2026-05-07 17:23 49.41236 10.81779 31734 ft 419 kts 331°
2026-05-07 17:23 49.43808 10.79761 31978 ft 421 kts 331°
2026-05-07 17:24 49.46430 10.77701 32214 ft 424 kts 331°
2026-05-07 17:24 49.49061 10.75631 32440 ft 426 kts 331°
2026-05-07 17:24 49.51697 10.73554 32793 ft 425 kts 331°
2026-05-07 17:24 49.54327 10.71481 33137 ft 425 kts 331°
2026-05-07 17:25 49.56959 10.69401 33432 ft 425 kts 331°
2026-05-07 17:25 49.59585 10.67324 33718 ft 425 kts 331°
2026-05-07 17:25 49.62223 10.65234 34024 ft 424 kts 331°
2026-05-07 17:25 49.64850 10.63150 34150 ft 429 kts 331°
2026-05-07 17:26 49.69305 10.59609 34083 ft 442 kts 331°
2026-05-07 17:26 49.74823 10.55217 34043 ft 449 kts 331°
2026-05-07 17:27 49.80158 10.50227 34040 ft 448 kts 326°
2026-05-07 17:27 49.85410 10.45035 34048 ft 448 kts 327°
2026-05-07 17:28 49.90714 10.39934 34050 ft 448 kts 327°
2026-05-07 17:28 49.95982 10.34874 34050 ft 448 kts 327°
2026-05-07 17:29 50.01278 10.29772 34044 ft 448 kts 327°
2026-05-07 17:29 50.06580 10.24648 34050 ft 448 kts 327°
2026-05-07 17:30 50.11886 10.19533 34059 ft 448 kts 328°
2026-05-07 17:30 50.17185 10.14553 34053 ft 448 kts 327°
2026-05-07 17:31 50.22474 10.09413 34053 ft 447 kts 327°
2026-05-07 17:31 50.27743 10.04235 34049 ft 447 kts 327°
2026-05-07 17:32 50.33004 9.99080 34060 ft 447 kts 327°
2026-05-07 17:32 50.38253 9.93926 34063 ft 447 kts 327°
2026-05-07 17:33 50.43514 9.88745 34057 ft 447 kts 327°
2026-05-07 17:33 50.48162 9.82709 34056 ft 448 kts 316°
2026-05-07 17:34 50.52537 9.76023 34052 ft 446 kts 315°
2026-05-07 17:34 50.56964 9.69165 34058 ft 447 kts 315°
2026-05-07 17:35 50.61420 9.62353 34058 ft 446 kts 315°
2026-05-07 17:35 50.65867 9.55522 34057 ft 446 kts 315°
2026-05-07 17:36 50.70315 9.48663 34058 ft 446 kts 315°
2026-05-07 17:36 50.74740 9.41820 34058 ft 446 kts 315°
2026-05-07 17:37 50.79179 9.34936 34069 ft 445 kts 315°
2026-05-07 17:37 50.83565 9.28117 34065 ft 445 kts 315°
2026-05-07 17:38 50.87979 9.21233 34072 ft 445 kts 315°
2026-05-07 17:38 50.92386 9.14344 34072 ft 445 kts 315°
2026-05-07 17:39 50.96789 9.07438 34075 ft 445 kts 315°
2026-05-07 17:39 51.01182 9.00526 34067 ft 445 kts 315°
2026-05-07 17:40 51.05565 8.93618 34078 ft 446 kts 315°
2026-05-07 17:40 51.09959 8.86673 34072 ft 445 kts 315°
2026-05-07 17:41 51.14346 8.79701 34073 ft 444 kts 314°
2026-05-07 17:41 51.18646 8.72619 34063 ft 445 kts 313°
2026-05-07 17:42 51.22939 8.65516 34074 ft 444 kts 314°
2026-05-07 17:42 51.27245 8.58435 34064 ft 444 kts 314°
2026-05-07 17:43 51.31539 8.51341 34085 ft 444 kts 314°
2026-05-07 17:43 51.35822 8.44238 34079 ft 445 kts 314°
2026-05-07 17:44 51.40098 8.37122 34077 ft 443 kts 314°
2026-05-07 17:44 51.44358 8.30021 34075 ft 445 kts 314°
2026-05-07 17:45 51.48635 8.22874 34077 ft 444 kts 314°
2026-05-07 17:45 51.52748 8.15935 34089 ft 445 kts 313°
2026-05-07 17:46 51.56999 8.08752 34085 ft 443 kts 313°
2026-05-07 17:46 51.61272 8.01562 34080 ft 446 kts 313°
2026-05-07 17:47 51.65539 7.94353 34087 ft 444 kts 313°
2026-05-07 17:47 51.69782 7.87151 34083 ft 443 kts 313°
2026-05-07 17:48 51.74026 7.79933 34080 ft 444 kts 313°
2026-05-07 17:48 51.78268 7.72654 34082 ft 447 kts 312°
2026-05-07 17:49 51.82496 7.65303 34087 ft 447 kts 312°
2026-05-07 17:49 51.86696 7.58217 34080 ft 448 kts 313°
2026-05-07 17:50 51.90920 7.51039 34083 ft 449 kts 312°
2026-05-07 17:50 51.93004 7.47429 33705 ft 441 kts 312°
2026-05-07 17:50 51.95060 7.43860 33490 ft 421 kts 312°
2026-05-07 17:51 51.96973 7.40509 32828 ft 413 kts 311°
2026-05-07 17:51 51.98883 7.37124 32355 ft 401 kts 311°
2026-05-07 17:51 52.00756 7.33829 31791 ft 392 kts 311°
2026-05-07 17:51 52.02490 7.30817 31315 ft 387 kts 311°
2026-05-07 17:52 52.04375 7.27616 30830 ft 397 kts 312°
2026-05-07 17:52 52.06183 7.24552 30264 ft 403 kts 312°
2026-05-07 17:52 52.08079 7.21291 29761 ft 401 kts 311°
2026-05-07 17:52 52.09980 7.17969 29226 ft 401 kts 311°
2026-05-07 17:53 52.11859 7.14661 28668 ft 404 kts 311°
2026-05-07 17:53 52.13655 7.11496 28220 ft 404 kts 311°
2026-05-07 17:53 52.15363 7.08497 27686 ft 405 kts 311°
2026-05-07 17:53 52.17174 7.05326 27194 ft 402 kts 311°
2026-05-07 17:54 52.19056 7.02026 26696 ft 397 kts 311°
2026-05-07 17:54 52.20812 6.98940 26213 ft 394 kts 311°
2026-05-07 17:54 52.22639 6.95682 26022 ft 387 kts 309°
2026-05-07 17:54 52.24336 6.92359 26118 ft 393 kts 307°
2026-05-07 17:55 52.25912 6.89064 26015 ft 393 kts 306°
2026-05-07 17:55 52.27386 6.85902 25837 ft 394 kts 303°
2026-05-07 17:55 52.28568 6.82215 24868 ft 397 kts 287°
2026-05-07 17:55 52.29325 6.78172 24858 ft 373 kts 285°
2026-05-07 17:56 52.30044 6.74094 24673 ft 378 kts 284°
2026-05-07 17:56 52.30765 6.69911 24449 ft 382 kts 285°
2026-05-07 17:56 52.31405 6.66305 24335 ft 380 kts 285°
2026-05-07 17:56 52.31903 6.63565 24151 ft 381 kts 285°
2026-05-07 17:57 52.32618 6.59652 24021 ft 378 kts 285°
2026-05-07 17:57 52.33076 6.57155 23860 ft 379 kts 286°
2026-05-07 17:57 52.33995 6.52165 23673 ft 378 kts 286°
2026-05-07 17:57 52.34735 6.48267 23441 ft 377 kts 287°
2026-05-07 17:58 52.35330 6.45156 23328 ft 377 kts 286°
2026-05-07 17:58 52.36020 6.41443 23114 ft 377 kts 286°
2026-05-07 17:58 52.36737 6.37477 22954 ft 376 kts 285°
2026-05-07 17:58 52.37274 6.34469 22789 ft 375 kts 285°
2026-05-07 17:59 52.37889 6.30889 22064 ft 376 kts 284°
2026-05-07 17:59 52.38505 6.26867 20803 ft 370 kts 283°
2026-05-07 17:59 52.39047 6.23288 19603 ft 367 kts 284°
2026-05-07 17:59 52.39700 6.19385 18202 ft 366 kts 285°
2026-05-07 18:00 52.40276 6.16125 16790 ft 367 kts 285°
2026-05-07 18:00 52.40979 6.12181 15496 ft 362 kts 285°
2026-05-07 18:00 52.41476 6.09311 15308 ft 335 kts 285°
2026-05-07 18:00 52.42011 6.06282 15061 ft 333 kts 285°
2026-05-07 18:01 52.42614 6.03097 14772 ft 336 kts 287°
2026-05-07 18:01 52.43164 6.00280 14498 ft 332 kts 287°
2026-05-07 18:01 52.43670 5.97627 14218 ft 325 kts 286°
2026-05-07 18:01 52.44206 5.94723 13875 ft 320 kts 285°
2026-05-07 18:02 52.45307 5.88265 13157 ft 305 kts 284°
2026-05-07 18:02 52.45845 5.84938 12829 ft 297 kts 284°
2026-05-07 18:02 52.46299 5.82293 12504 ft 294 kts 285°
2026-05-07 18:03 52.46779 5.79639 12249 ft 288 kts 285°
2026-05-07 18:03 52.47247 5.77114 11930 ft 287 kts 287°
2026-05-07 18:03 52.47535 5.75636 11795 ft 285 kts 287°
2026-05-07 18:03 52.48140 5.72654 11455 ft 288 kts 287°
2026-05-07 18:04 52.48661 5.70051 11166 ft 287 kts 287°
2026-05-07 18:04 52.49116 5.67644 10907 ft 284 kts 285°
2026-05-07 18:04 52.49596 5.64955 10598 ft 283 kts 285°
2026-05-07 18:04 52.50001 5.62635 10377 ft 280 kts 285°
2026-05-07 18:05 52.50413 5.60178 10274 ft 278 kts 283°
2026-05-07 18:05 52.50538 5.57544 10204 ft 281 kts 263°
2026-05-07 18:05 52.50086 5.55034 10221 ft 280 kts 244°
2026-05-07 18:05 52.49153 5.52256 10032 ft 284 kts 240°
2026-05-07 18:06 52.48195 5.49506 10044 ft 275 kts 241°
2026-05-07 18:06 52.47293 5.46921 10173 ft 280 kts 240°
2026-05-07 18:06 52.46747 5.45381 10135 ft 286 kts 239°
2026-05-07 18:06 52.45996 5.43312 9510 ft 293 kts 238°
2026-05-07 18:07 52.44983 5.40638 8562 ft 302 kts 237°
2026-05-07 18:07 52.44056 5.38227 7651 ft 308 kts 237°
2026-05-07 18:07 52.43476 5.36703 7595 ft 295 kts 237°
2026-05-07 18:07 52.42710 5.34597 8246 ft 260 kts 239°
2026-05-07 18:08 52.41830 5.32065 8890 ft 257 kts 239°
2026-05-07 18:08 52.40947 5.29543 8787 ft 252 kts 239°
2026-05-07 18:08 52.40058 5.27086 8500 ft 249 kts 238°
2026-05-07 18:08 52.39160 5.24668 8132 ft 249 kts 238°
2026-05-07 18:09 52.38248 5.22226 7685 ft 253 kts 238°
2026-05-07 18:09 52.37325 5.19737 7150 ft 260 kts 238°
2026-05-07 18:09 52.36398 5.17206 6638 ft 264 kts 237°
2026-05-07 18:09 52.35446 5.14591 6140 ft 267 kts 238°
2026-05-07 18:10 52.34505 5.11995 5755 ft 265 kts 238°
2026-05-07 18:10 52.33654 5.09338 5282 ft 267 kts 252°
2026-05-07 18:10 52.33473 5.06322 4896 ft 266 kts 269°
2026-05-07 18:10 52.33538 5.03293 4482 ft 266 kts 273°
2026-05-07 18:11 52.33687 5.00250 4031 ft 267 kts 275°
2026-05-07 18:11 52.33790 4.98286 4044 ft 258 kts 274°
2026-05-07 18:11 52.33955 4.94357 4117 ft 267 kts 273°
2026-05-07 18:11 52.34018 4.92242 4097 ft 270 kts 272°
2026-05-07 18:12 52.33962 4.89150 4037 ft 259 kts 256°
2026-05-07 18:12 52.33512 4.86508 3990 ft 246 kts 261°
2026-05-07 18:12 52.33515 4.83874 4174 ft 227 kts 273°
2026-05-07 18:12 52.33602 4.81323 4079 ft 224 kts 272°
2026-05-07 18:13 52.33648 4.79853 4100 ft 218 kts 272°
2026-05-07 18:13 52.33690 4.78360 4157 ft 211 kts 270°
2026-05-07 18:13 52.33440 4.76047 4127 ft 206 kts 253°
2026-05-07 18:13 52.33077 4.73795 4106 ft 203 kts 254°
2026-05-07 18:14 52.32718 4.71584 4101 ft 199 kts 253°
2026-05-07 18:14 52.32359 4.69427 4120 ft 195 kts 253°
2026-05-07 18:14 52.32001 4.67324 4127 ft 189 kts 252°
2026-05-07 18:14 52.31639 4.65268 4103 ft 189 kts 252°
2026-05-07 18:15 52.31269 4.63199 4028 ft 190 kts 252°
2026-05-07 18:15 52.30896 4.61122 3939 ft 192 kts 252°
2026-05-07 18:15 52.30508 4.59050 3939 ft 188 kts 244°
2026-05-07 18:15 52.29886 4.57233 3978 ft 180 kts 236°
2026-05-07 18:16 52.29241 4.55496 3762 ft 181 kts 237°
2026-05-07 18:16 52.28614 4.53971 3413 ft 186 kts 225°
2026-05-07 18:16 52.27837 4.52674 2853 ft 201 kts 228°
2026-05-07 18:16 52.27091 4.50767 2440 ft 204 kts 238°
2026-05-07 18:17 52.27026 4.50591 2397 ft 204 kts 238°
2026-05-07 18:17 52.26357 4.48822 2075 ft 203 kts 237°
2026-05-07 18:17 52.25538 4.47107 2036 ft 186 kts 213°
2026-05-07 18:17 52.24620 4.46598 1991 ft 171 kts 175°
2026-05-07 18:18 52.23619 4.47277 2033 ft 147 kts 136°
2026-05-07 18:18 52.22834 4.48185 2105 ft 138 kts 143°
2026-05-07 18:18 52.22569 4.48489 2038 ft 138 kts 130°
2026-05-07 18:18 52.22196 4.49743 1901 ft 132 kts 92°
2026-05-07 18:19 52.22180 4.50616 2108 ft 129 kts 91°
2026-05-07 18:19 52.22146 4.51489 2589 ft 111 kts 92°
2026-05-07 18:19 52.22098 4.52943 2695 ft 143 kts 91°
2026-05-07 18:19 52.22049 4.54706 2912 ft 164 kts 85°
2026-05-07 18:20 52.22285 4.56578 3230 ft 175 kts 64°
2026-05-07 18:20 52.22490 4.57165 3224 ft 177 kts 59°
2026-05-07 18:20 52.23192 4.58731 2589 ft 187 kts 56°
2026-05-07 18:20 52.23473 4.59430 2273 ft 189 kts 59°
2026-05-07 18:21 52.23789 4.60323 2031 ft 184 kts 62°
2026-05-07 18:21 52.24273 4.61701 1767 ft 176 kts 59°
2026-05-07 18:21 52.24920 4.63298 1522 ft 158 kts 54°
2026-05-07 18:21 52.25563 4.64398 1290 ft 132 kts 53°
2026-05-07 18:22 52.25761 4.65061 1087 ft 130 kts 71°
2026-05-07 18:22 52.26183 4.66728 966 ft 122 kts 57°
2026-05-07 18:22 52.26627 4.67842 1015 ft 124 kts 52°
2026-05-07 18:23 52.27092 4.69002 817 ft 127 kts 58°
2026-05-07 18:23 52.27543 4.70173 540 ft 125 kts 57°
2026-05-07 18:23 52.27931 4.71161 362 ft 122 kts 57°
2026-05-07 18:23 52.28375 4.72338 227 ft 123 kts 56°
2026-05-07 18:24 52.28836 4.73532 58 ft 126 kts 58°
2026-05-07 18:24 52.29259 4.74627 -2 ft 107 kts 59°
2026-05-07 18:24 52.29521 4.75316 -4 ft 72 kts 57°
2026-05-07 18:24 52.29732 4.75764 -5 ft 27 kts 33°
2026-05-07 18:25 52.29829 4.75844 -4 ft 11 kts 27°
2026-05-07 18:25 52.29891 4.75895 -4 ft 12 kts 27°
2026-05-07 18:25 52.29969 4.75959 -3 ft 13 kts 25°
2026-05-07 18:25 52.30018 4.76052 -3 ft 11 kts 56°
2026-05-07 18:26 52.30060 4.76165 -3 ft 12 kts 59°
2026-05-07 18:26 52.30097 4.76262 -3 ft 13 kts 58°
2026-05-07 18:26 52.30111 4.76293 -3 ft 0 kts 41°
2026-05-07 18:26 52.30116 4.76297 -3 ft 3 kts 20°
2026-05-07 18:27 52.30149 4.76294 -3 ft 7 kts 345°
2026-05-07 18:27 52.30200 4.76260 -3 ft 9 kts 331°
2026-05-07 18:27 52.30254 4.76207 -3 ft 9 kts 329°
2026-05-07 18:27 52.30300 4.76161 -3 ft 7 kts 328°
2026-05-07 18:28 52.30335 4.76125 -3 ft 5 kts 328°
2026-05-07 18:28 52.30358 4.76105 -3 ft 4 kts 348°
2026-05-07 18:28 52.30378 4.76123 -3 ft 4 kts 52°
2026-05-07 18:28 52.30389 4.76152 -3 ft 2 kts 59°
2026-05-07 18:29 52.30390 4.76156 -3 ft 1 kts 58°
2026-05-07 18:29 52.30391 4.76157 -3 ft 0 kts 58°